Location: Newark
(49.8348°N, 24.0280°E)
Time: 01:12:09
(UTC+00:00)

S-56A Canister/Altair - Pass Details

Date: 28 January 2020
Orbit: 633 x 2500 km, 38.9° (Epoch: 26 February)

Event Time Altitude Azimuth Distance (km) Brightness Sun altitude
Rises 21:10:27 0° 259° (W) 3,477 - -53.9°
Reaches altitude 10° 21:13:53 10° 242° (WSW) 2,303 - -54.2°
Maximum altitude 21:17:24 19° 199° (SSW) 1,624 - -54.5°
Drops below altitude 10° 21:20:32 10° 154° (SSE) 2,027 - -54.8°
Sets 21:23:20 0° 135° (SE) 2,911 - -55.1°
